Weather History for Andalusia, AL

Change the Weather History Date:

Saturday, February 16, 2013

  Actual Average (KCEW) Record (KCEW)
Temperature  
Mean Temperature 46 °F -  
Max Temperature 55 °F 68 °F 82 °F (1992)
Min Temperature 36 °F 46 °F 17 °F (1991)
Degree Days  
Heating Degree Days 19    
Moisture  
Dew Point 25 °F    
Average Humidity 45    
Maximum Humidity 68    
Minimum Humidity 22    
Precipitation  
Precipitation 0.00 in - - ()
Sea Level Pressure  
Sea Level Pressure 30.13 in    
Wind  
Wind Speed 10 mph (NNW)    
Max Wind Speed 20 mph    
Max Gust Speed 32 mph    
Visibility 10 miles    
Events Rain    
Averages and records for this station are not official NWS values.
T = Trace of Precipitation, MM = Missing Value Source: NWS Daily Summary

Daily Weather History Graph

Daily Weather History Graph

Search for Another Location

Airport:

Trip Planner

Search our weather history database for the weather conditions in past years. The results will help you decide how hot, cold, wet, or windy it might be!

Date:

Astronomy

Feb. 16, 2013 Rise Set
Actual Time 6:25 AM CST 5:33 PM CST
Civil Twilight 6:01 AM CST 5:58 PM CST
Nautical Twilight 5:32 AM CST 6:27 PM CST
Astronomical Twilight 5:04 AM CST 6:55 PM CST
Moon 10:06 AM CST (2/16) No Moon Set
Length of Visible Light 11h 57m
Length of Day
11h 08m
Waxing Crescent, 39% of the Moon is Illuminated
Feb 16
Waxing Crescent
Feb 17
First Quarter
Feb 25
Full
Mar 4
Last Quarter
Mar 11
New

Hourly Weather History & Observations

Time (CST) Temp. Windchill Dew Point Humidity Pressure Visibility Wind Dir Wind Speed Gust Speed Precip Events Conditions
12:56 AM 50.0 °F - 37.9 °F 63% 30.05 in 10.0 mi North 8.1 mph - N/A   Clear
1:56 AM 48.0 °F - 37.0 °F 66% 30.04 in 10.0 mi North 5.8 mph - N/A   Scattered Clouds
2:56 AM 48.0 °F - 37.0 °F 66% 30.04 in 10.0 mi NNW 5.8 mph - N/A   Overcast
3:56 AM 48.0 °F - 37.9 °F 68% 30.04 in 10.0 mi NNW 8.1 mph - N/A   Overcast
4:56 AM 48.9 °F - 37.0 °F 64% 30.06 in 10.0 mi NNW 10.4 mph - N/A   Overcast
5:56 AM 46.9 °F - 35.1 °F 63% 30.09 in 10.0 mi NNW 10.4 mph 21.9 mph 0.00 in Rain Light Rain
6:56 AM 46.0 °F 42.5 °F 35.1 °F 66% 30.09 in 10.0 mi WNW 6.9 mph - 0.00 in   Overcast
7:56 AM 46.9 °F - 34.0 °F 61% 30.10 in 10.0 mi NNW 10.4 mph - N/A   Scattered Clouds
8:56 AM 50.0 °F - 30.9 °F 48% 30.12 in 10.0 mi NNW 17.3 mph 25.3 mph N/A   Clear
9:56 AM 51.1 °F - 28.0 °F 41% 30.13 in 10.0 mi NNW 17.3 mph 24.2 mph N/A   Scattered Clouds
10:56 AM 53.1 °F - 25.0 °F 34% 30.13 in 10.0 mi North 19.6 mph 28.8 mph N/A   Partly Cloudy
11:56 AM 55.0 °F - 24.1 °F 30% 30.11 in 10.0 mi North 19.6 mph 32.2 mph N/A   Mostly Cloudy
12:56 PM 53.1 °F - 21.9 °F 30% 30.09 in 10.0 mi NNW 18.4 mph 32.2 mph N/A   Mostly Cloudy
1:56 PM 51.1 °F - 18.0 °F 27% 30.09 in 10.0 mi NNW 19.6 mph 28.8 mph N/A   Mostly Cloudy
2:56 PM 50.0 °F - 14.0 °F 24% 30.10 in 10.0 mi NNW 13.8 mph 29.9 mph N/A   Mostly Cloudy
3:56 PM 51.1 °F - 12.9 °F 22% 30.11 in 10.0 mi NNW 17.3 mph 24.2 mph N/A   Scattered Clouds
4:56 PM 48.0 °F - 10.9 °F 22% 30.12 in 10.0 mi North 18.4 mph 29.9 mph N/A   Clear
5:56 PM 45.0 °F 40.6 °F 15.1 °F 30% 30.14 in 10.0 mi NNW 8.1 mph - N/A   Clear
6:56 PM 43.0 °F 37.7 °F 16.0 °F 34% 30.18 in 10.0 mi NNW 9.2 mph - N/A   Clear
7:56 PM 42.1 °F 37.1 °F 18.0 °F 38% 30.20 in 10.0 mi NNW 8.1 mph - N/A   Clear
8:56 PM 39.9 °F 34.5 °F 19.0 °F 43% 30.23 in 10.0 mi NNW 8.1 mph - N/A   Clear
9:56 PM 39.0 °F 34.0 °F 19.0 °F 45% 30.26 in 10.0 mi NNW 6.9 mph - N/A   Clear
10:56 PM 37.9 °F 33.5 °F 19.0 °F 47% 30.25 in 10.0 mi North 5.8 mph - N/A   Clear
11:56 PM 36.0 °F 33.3 °F 19.9 °F 52% 30.27 in 10.0 mi NW 3.5 mph - N/A   Clear